[[{"header":{"parameterUnit":"m.s-1","parameterCategory":1,"la1":30.2991,"la2":30.254,"lo1":-89.0895,"lo2":-89.0444,"dy":0.0017,"dx":0.0017,"nx":28,"ny":28,"refTime":"2025-06-13T21:00:00:Z","depth":0,"parameterNumber":2,"parameterNumberName":"U-component_of_WINDS"},"data":[0,0,0,0,0,0,0,0,0,0,0,0,0,0,0,0,0,0,0,0,0,0,0,0,0,0,0,0,0,0,0,0,0,0,0,0,0,0,0,0,0,0,0,0,0,0,0,0,0,0,0,0,0,0,0,0,0,0,1.6675,1.6676,0,1.6714,1.6715,1.6715,1.6737,1.6737,1.6737,1.6737,1.6781,1.6782,1.6783,0,0,0,0,0,0,0,0,0,0,0,0,0,1.6622,1.6623,1.6675,1.6676,1.6676,1.6714,1.6715,1.6715,1.6737,1.6737,1.6737,1.6737,1.6781,1.6782,1.6784,0,0,0,0,0,0,0,0,0,0,0,0,0,1.6652,1.6623,1.6675,1.6691,1.6693,1.6714,1.6715,1.6715,1.6737,1.6737,1.6737,1.6737,1.678,1.6782,1.6784,1.6793,0,0,1.6789,1.679,0,0,0,0,0,0,0,0,1.665,1.6654,1.6688,1.669,1.6692,1.6721,1.6712,1.6741,1.6737,1.672,1.6737,1.6737,1.6761,1.6765,1.6772,1.6795,1.6797,1.6789,1.679,1.6791,1.6791,0,0,0,0,0,0,0,1.6648,1.6652,1.6691,1.6689,1.6691,1.6698,1.6702,1.6718,1.674,1.6722,1.6723,1.6728,1.6762,1.677,1.6773,1.6797,1.6789,1.679,1.6792,1.6792,1.6829,1.6829,0,0,0,0,0,0,1.6643,1.665,1.6689,1.6692,1.6671,1.6699,1.6703,1.6712,1.674,1.6744,1.6727,1.6728,1.6767,1.6771,1.6775,1.6787,1.6791,1.6792,1.6793,1.6829,1.6829,1.6829,0,0,0,0,0,0,1.6642,1.6646,1.6688,1.6672,1.6677,1.6699,1.6708,1.6712,1.672,1.6744,1.6749,1.6731,1.6767,1.6772,1.6788,1.6788,1.6793,1.6795,1.6829,1.6829,1.6829,1.6811,0,0,0,0,0,0,1.664,1.6646,1.6648,1.6671,1.6678,1.6699,1.6708,1.6713,1.6722,1.6724,1.6749,1.6753,1.6768,1.6785,1.6789,1.6791,1.6796,1.6829,1.6829,1.6829,1.6811,1.681,1.6809,0,0,0,0,0,1.6638,1.6643,1.6648,1.6653,1.6682,1.6699,1.6703,1.6719,1.6722,1.6726,1.6741,1.6752,1.6787,1.6786,1.6791,1.6794,1.6829,1.6829,1.6829,1.6812,1.681,1.6809,0,0,0,0,0,0,1.6621,1.6646,1.6653,1.6665,1.6679,1.6703,1.6708,1.6717,1.6732,1.6733,1.6753,1.6759,1.6772,1.6784,1.6783,1.6803,1.6809,1.681,1.6795,1.6794,1.6792,1.6789,1.6797,0,0,0,0,0,1.6618,1.6629,1.6651,1.6659,1.6666,1.6685,1.6694,1.6704,1.6721,1.6728,1.6744,1.6761,1.6776,1.6785,1.68,1.6813,1.6819,1.6817,1.6816,1.6815,1.6815,1.6823,1.6822,1.6828,1.6828,1.6828,0,0,1.6614,1.6629,1.6635,1.6656,1.6669,1.668,1.6691,1.6703,1.6712,1.673,1.6745,1.6758,1.6778,1.6791,1.6798,1.6802,1.6815,1.6815,1.6813,1.6815,1.6823,1.6822,1.6821,1.6828,1.6828,1.6828,0,0,1.6611,1.6623,1.6631,1.6643,1.6662,1.6674,1.6676,1.6698,1.6706,1.6721,1.6735,1.6747,1.6772,1.6785,1.6795,1.6796,1.6807,1.6801,1.6795,1.6802,1.6801,1.6801,1.6801,1.6801,1.6801,1.6801,1.6801,0,1.6603,1.662,1.6635,1.6645,1.6655,1.667,1.6679,1.669,1.6713,1.672,1.6723,1.6754,1.6769,1.6786,1.6786,1.6794,1.6797,1.6798,1.68,1.68,1.68,1.68,1.68,1.68,1.6801,1.6801,1.6801,0,1.6609,1.662,1.6625,1.6645,1.6655,1.6665,1.6682,1.669,1.67,1.6712,1.6728,1.6745,1.6764,1.6769,1.6779,1.6787,1.6789,1.6796,1.6802,1.6798,1.6799,1.6799,1.6799,1.6799,1.68,1.68,0,0,1.6598,1.6624,1.6626,1.6635,1.6656,1.6666,1.6676,1.6693,1.67,1.6715,1.6724,1.6745,1.6751,1.6762,1.6774,1.678,1.678,1.6787,1.6787,1.6785,1.679,1.6784,1.6784,1.6786,1.6787,1.6787,1.6788,0,1.6598,1.6616,1.663,1.6643,1.6654,1.6668,1.6678,1.6692,1.6704,1.6715,1.6729,1.6743,1.675,1.6757,1.6763,1.6778,1.6781,1.6778,1.6797,1.6797,1.6791,1.6785,1.678,1.678,1.6788,1.6789,1.6789,0,1.6601,1.6614,1.6628,1.6647,1.6652,1.666,1.6676,1.6686,1.6703,1.6711,1.6723,1.6735,1.6748,1.6752,1.677,1.6768,1.6776,1.6785,1.6785,1.6788,1.6793,1.6788,1.6781,1.6781,1.6789,1.6789,1.6789,0,1.6591,1.6612,1.6623,1.663,1.6653,1.6658,1.6668,1.6684,1.6693,1.6708,1.6714,1.673,1.6739,1.6751,1.6767,1.6769,1.6784,1.679,1.6791,1.6791,1.6794,1.6794,1.6789,1.6799,1.6799,1.6799,1.6799,0,1.659,1.6598,1.6618,1.6625,1.6635,1.6651,1.666,1.6671,1.6686,1.6696,1.6709,1.6719,1.6739,1.6751,1.6764,1.6777,1.6781,1.6788,1.6792,1.6787,1.6786,1.6793,1.6794,1.6799,1.6799,1.6799,1.6799,0,1.6581,1.6595,1.6608,1.6627,1.6632,1.6639,1.6656,1.6664,1.6675,1.6688,1.6692,1.6711,1.6726,1.6742,1.6763,1.6772,1.6784,1.6789,1.6778,1.678,1.678,1.678,1.678,1.678,1.679,1.679,1.6789,0,1.6579,1.6586,1.6605,1.6612,1.6621,1.6632,1.6641,1.6657,1.6665,1.6684,1.669,1.6705,1.6718,1.6741,1.6757,1.6773,1.6779,1.6777,1.6781,1.6776,1.6779,1.6778,1.6779,1.6777,1.6776,1.6776,1.6776,0,1.6575,1.6581,1.6593,1.6606,1.6616,1.6628,1.664,1.6646,1.6664,1.6673,1.6687,1.6697,1.6717,1.6733,1.675,1.6762,1.6772,1.6774,1.6776,1.6772,1.6765,1.6768,1.6775,1.6775,1.6775,1.6775,1.6775,1.6775,1.657,1.6576,1.6591,1.6603,1.6613,1.6624,1.6632,1.6644,1.6656,1.6673,1.6682,1.6696,1.6712,1.6737,1.6747,1.6759,1.6763,1.6765,1.6765,1.6766,1.6764,1.6762,1.6763,1.6763,1.6763,1.6763,1.6763,0,1.6567,1.6576,1.6587,1.6603,1.6613,1.662,1.6634,1.6642,1.6654,1.6668,1.668,1.6696,1.6711,1.6728,1.6744,1.675,1.6755,1.6754,1.6753,1.6756,1.676,1.6757,1.6749,1.6749,1.6749,1.6749,1.6749,1.6749,1.6566,1.6577,1.6584,1.6601,1.6611,1.6623,1.6631,1.6641,1.6652,1.6669,1.6681,1.6691,1.6707,1.6723,1.6737,1.6742,1.6747,1.6744,1.6751,1.6754,1.6756,1.6757,1.6754,1.6745,1.6745,1.6745,1.6745,1.6745]},{"header":{"parameterUnit":"m.s-1","parameterCategory":1,"la1":30.2991,"la2":30.254,"lo1":-89.0895,"lo2":-89.0444,"dy":0.0017,"dx":0.0017,"nx":28,"ny":28,"refTime":"2025-06-13T21:00:00:Z","depth":0,"parameterNumber":3,"parameterNumberName":"V-component_of_WINDS"},"data":[0,0,0,0,0,0,0,0,0,0,0,0,0,0,0,0,0,0,0,0,0,0,0,0,0,0,0,0,0,0,0,0,0,0,0,0,0,0,0,0,0,0,0,0,0,0,0,0,0,0,0,0,0,0,0,0,0,0,2.767,2.767,0,2.7668,2.7668,2.7668,2.768,2.7681,2.7681,2.7682,2.7676,2.7676,2.7675,0,0,0,0,0,0,0,0,0,0,0,0,0,2.7683,2.7683,2.767,2.767,2.767,2.7668,2.7668,2.7668,2.768,2.7681,2.7681,2.7682,2.7677,2.7676,2.7675,0,0,0,0,0,0,0,0,0,0,0,0,0,2.7679,2.7683,2.767,2.7676,2.7677,2.7668,2.7668,2.7668,2.768,2.7681,2.7681,2.7682,2.7677,2.7676,2.7675,2.766,0,0,2.7673,2.7673,0,0,0,0,0,0,0,0,2.7679,2.7678,2.7675,2.7676,2.7676,2.7675,2.7671,2.7665,2.768,2.7679,2.7682,2.7682,2.7675,2.7675,2.7673,2.7659,2.7659,2.7673,2.7673,2.7672,2.7672,0,0,0,0,0,0,0,2.7679,2.7679,2.7669,2.7675,2.7676,2.7678,2.7678,2.767,2.7674,2.7679,2.768,2.768,2.7676,2.7674,2.7673,2.7659,2.7673,2.7672,2.7672,2.7672,2.7633,2.7632,0,0,0,0,0,0,2.7679,2.7679,2.7669,2.7669,2.7679,2.7678,2.7678,2.7675,2.7674,2.7674,2.7679,2.768,2.7675,2.7674,2.7673,2.7655,2.7672,2.7672,2.7671,2.7633,2.7633,2.7632,0,0,0,0,0,0,2.768,2.7678,2.7669,2.7674,2.7673,2.7677,2.7674,2.7674,2.7673,2.7674,2.7675,2.7676,2.7675,2.7674,2.7663,2.7655,2.7671,2.7671,2.7634,2.7633,2.7632,2.7618,0,0,0,0,0,0,2.768,2.7678,2.7673,2.7674,2.7673,2.766,2.7673,2.7674,2.7672,2.7673,2.7672,2.7672,2.7675,2.7664,2.7662,2.7654,2.767,2.7635,2.7634,2.7633,2.7619,2.7617,2.7615,0,0,0,0,0,2.768,2.7668,2.7673,2.7671,2.7666,2.766,2.7659,2.7664,2.7671,2.7665,2.7666,2.7672,2.7656,2.7663,2.7661,2.7652,2.7635,2.7634,2.7633,2.762,2.7617,2.7615,0,0,0,0,0,0,2.7665,2.7668,2.7673,2.7661,2.766,2.7662,2.7655,2.766,2.7656,2.7658,2.7663,2.7663,2.7651,2.7651,2.7658,2.7637,2.7647,2.7645,2.7638,2.7635,2.7633,2.7633,2.7669,0,0,0,0,0,2.766,2.7655,2.7658,2.7648,2.7647,2.7651,2.7648,2.7652,2.7651,2.765,2.765,2.7648,2.7643,2.7639,2.7634,2.7619,2.7619,2.7612,2.761,2.7608,2.7607,2.7599,2.7596,2.7628,2.7628,2.7628,0,0,2.765,2.7652,2.7648,2.7645,2.7644,2.7638,2.765,2.7644,2.7639,2.7649,2.7639,2.7639,2.7637,2.7625,2.7619,2.7624,2.7598,2.7607,2.7605,2.7604,2.7598,2.7595,2.7592,2.7627,2.7627,2.7627,0,0,2.7629,2.763,2.7621,2.7621,2.7621,2.7624,2.7621,2.7622,2.7623,2.7614,2.7621,2.7615,2.7606,2.7604,2.7602,2.7581,2.7587,2.7579,2.7567,2.756,2.7558,2.7555,2.7548,2.7545,2.7578,2.7578,2.7578,0,2.7617,2.7609,2.7616,2.7609,2.7607,2.7617,2.7608,2.7607,2.7604,2.7603,2.7608,2.7597,2.7596,2.7583,2.7579,2.7576,2.7574,2.7579,2.7558,2.7555,2.7553,2.7547,2.7544,2.7577,2.7577,2.7577,2.7577,0,2.7594,2.7589,2.7581,2.758,2.7578,2.7569,2.7574,2.7571,2.7575,2.7577,2.7567,2.7567,2.7562,2.756,2.7563,2.7548,2.7551,2.7557,2.7566,2.755,2.7543,2.7541,2.7576,2.7576,2.7576,2.7576,0,0,2.7563,2.7566,2.7563,2.7563,2.7564,2.7559,2.7552,2.7548,2.7545,2.7543,2.7537,2.7529,2.7535,2.7532,2.7536,2.753,2.7514,2.7536,2.7537,2.7532,2.7497,2.7492,2.7489,2.7517,2.7517,2.7516,2.7497,0,2.7543,2.7531,2.7537,2.7524,2.7519,2.7528,2.7521,2.7521,2.7523,2.7518,2.752,2.7514,2.7523,2.7521,2.7515,2.7517,2.7506,2.7518,2.7511,2.751,2.7511,2.7486,2.7481,2.7462,2.7494,2.7494,2.7494,0,2.7517,2.7516,2.7502,2.7505,2.7503,2.7497,2.7494,2.749,2.749,2.7491,2.7489,2.7494,2.7487,2.7497,2.7486,2.7494,2.7491,2.7491,2.7491,2.749,2.7501,2.7484,2.7457,2.7454,2.749,2.749,2.749,0,2.7496,2.749,2.7482,2.7482,2.7484,2.7479,2.748,2.748,2.7478,2.7475,2.7474,2.747,2.7468,2.7465,2.7469,2.7476,2.7457,2.7467,2.7458,2.7458,2.7454,2.7454,2.7425,2.7452,2.7452,2.7452,2.7452,0,2.7473,2.7465,2.7473,2.7468,2.7458,2.7465,2.7456,2.7457,2.7457,2.7452,2.746,2.7454,2.746,2.7455,2.7458,2.7449,2.7448,2.7449,2.745,2.7448,2.7448,2.7447,2.7448,2.7452,2.7452,2.7452,2.7452,0,2.7448,2.7453,2.7444,2.7448,2.7448,2.7441,2.7444,2.7439,2.7442,2.7435,2.7434,2.7438,2.7433,2.7437,2.7431,2.7433,2.7421,2.7424,2.7422,2.7422,2.7413,2.7414,2.7383,2.7379,2.7408,2.7407,2.7407,0,2.7433,2.7427,2.743,2.7427,2.7428,2.7423,2.7422,2.7428,2.7425,2.7425,2.742,2.7416,2.7413,2.7404,2.7406,2.7402,2.7405,2.7394,2.7404,2.7403,2.7405,2.7405,2.7405,2.7392,2.7391,2.7391,2.7391,0,2.7405,2.7409,2.7406,2.7404,2.7402,2.7401,2.74,2.7397,2.7404,2.7401,2.7396,2.7394,2.7389,2.7385,2.7382,2.7382,2.7387,2.7388,2.7386,2.7384,2.7383,2.7384,2.7416,2.7388,2.7389,2.7389,2.7389,2.7389,2.7385,2.738,2.7382,2.7379,2.7379,2.7378,2.7374,2.7377,2.7374,2.7371,2.7375,2.7369,2.7369,2.7366,2.7365,2.736,2.7365,2.7361,2.7361,2.736,2.7359,2.7384,2.736,2.736,2.736,2.736,2.736,0,2.7358,2.736,2.7357,2.7357,2.7354,2.7361,2.736,2.7358,2.7353,2.7353,2.735,2.7345,2.7341,2.7343,2.734,2.7336,2.7338,2.7335,2.7335,2.7335,2.7355,2.7357,2.7333,2.7333,2.7333,2.7333,2.7333,2.7333,2.7344,2.7337,2.734,2.7333,2.7335,2.733,2.7329,2.7329,2.7329,2.7323,2.732,2.7322,2.7323,2.732,2.7316,2.7317,2.7315,2.7311,2.7312,2.7331,2.7333,2.7336,2.7338,2.731,2.731,2.7293,2.7293,2.7293]}]]